Regional Weather Roundup
Issued by NWS

Home | Current Version | Previous Version | Text Only | Print | Product List | Glossary Off
Versions: 1 2 3 4 5 6 7 8 9 10 11 12 13 14 15 16 17 18 19 20 21 22 23 24 25 26 27 28 29 30 31 32 33 34 35 36 37 38 39 40 41 42 43 44 45 46 47 48 49 50

000
ASUS43 KOAX 192102
RWRNE

WEATHER ROUNDUP FOR NEBRASKA
NATIONAL WEATHER SERVICE OMAHA NE
300 PM CST THU JAN 19 2017

NOTES: SATELLITE DATA IS BEING USED TO AUGMENT CLOUD COVER ABOVE
       12000 FEET.
       "FAIR" INDICATES FEW OR NO CLOUDS BELOW 12,000 FEET WITH NO
       SIGNIFICANT WEATHER AND/OR OBSTRUCTIONS TO VISIBILITY.

  * THESE STATIONS DO NOT REPORT WEATHER SUCH AS RAIN...SNOW OR FOG.

NEZ001>004-019>022-054>056-192200-
NEBRASKA PANHANDLE

CITY           SKY/WX    TMP DP  RH WIND       PRES   REMARKS
SCOTTSBLUFF    SUNNY     54  24  31 CALM      29.49F
ALLIANCE       SUNNY     52  22  30 W10       29.48F
CHADRON        SUNNY     41  27  57 W5        29.48F
KIMBALL        SUNNY     53  30  42 CALM      29.51F
SIDNEY         SUNNY     53  22  29 VRB3      29.51F
$$

NEZ057>060-069>072-079>082-192200-
SOUTHWEST NEBRASKA

CITY           SKY/WX    TMP DP  RH WIND       PRES   REMARKS
NORTH PLATTE   CLOUDY    39  39 100 S3        29.56F FOG
IMPERIAL       SUNNY     43  34  70 VRB7      29.53F
LEXINGTON      CLOUDY    42  40  95 S6        29.58S
MCCOOK         CLOUDY    36  36 100 W6        29.58R FOG     WCI  31
OGALLALA       SUNNY     49  32  52 CALM      29.52F
$$

NEZ005>010-023>029-035>040-094-192200-
NORTH CENTRAL NEBRASKA

CITY           SKY/WX    TMP DP  RH WIND       PRES   REMARKS
VALENTINE      SUNNY     56  21  25 W16       29.47F
AINSWORTH      SUNNY     42  36  78 S16       29.50F
BROKEN BOW     CLOUDY    41  40  96 SW9       29.56S FOG
O`NEILL        CLOUDY    43  42  98 S10       29.57R FOG
ORD            CLOUDY    41  39  93 S6        29.57S FOG
THEDFORD       SUNNY     42  35  76 S12       29.52F
$$

NEZ041-046>049-061>064-073>077-083>087-192200-
SOUTH CENTRAL NEBRASKA

CITY           SKY/WX    TMP DP  RH WIND       PRES   REMARKS
GRAND ISLAND   CLOUDY    42  42 100 S8        29.61F FOG
AURORA         CLOUDY    41  41 100 SE10      29.62S FOG
HASTINGS       CLOUDY    42  41  96 S7        29.62S FOG
HEBRON         CLOUDY    43  43  98 SE9       29.62F FOG
HOLDREGE       CLOUDY    42  41  97 S7        29.59R FOG
KEARNEY *      CLOUDY    43  39  87 S7        29.59F
YORK           SUNNY     41  41 100 S7        29.64R FOG
$$

NEZ011>018-030>034-042>045-192200-
NORTHEAST NEBRASKA

CITY           SKY/WX    TMP DP  RH WIND       PRES   REMARKS
NORFOLK        CLOUDY    40  39  97 SE9       29.61F FOG     WCI  34
ALBION         CLOUDY    40  40 100 S9        29.60S FOG     WCI  34
BLAIR          CLOUDY    43  41  92 S5        29.65F FOG
FREMONT        CLOUDY    42  41  98 S5        29.67S
TEKAMAH        FOG       39  37  93 S6        29.66F VSB 1   WCI  35
WAYNE          CLOUDY    42  41  99 S10       29.63F FOG
$$

NEZ050>053-065>068-078-088>093-192200-
SOUTHEAST NEBRASKA

CITY           SKY/WX    TMP DP  RH WIND       PRES   REMARKS
LINCOLN        CLOUDY    42  41  96 S8        29.66F FOG
OMAHA EPPLEY   CLOUDY    45  40  82 S5        29.67F FOG
BEATRICE       CLOUDY    44  43  97 S3        29.64F FOG
FALLS CITY     CLOUDY    46  44  93 S8        29.66F
NEBRASKA CITY  CLOUDY    43  43 100 SE3       29.66F FOG
PLATTSMOUTH    FOG       43  40  90 S5        29.67R VSB 1/2
$$

NEZ044-045-051>053-067-192200-
OMAHA AREA

CITY           SKY/WX    TMP DP  RH WIND       PRES   REMARKS
OMAHA EPPLEY   CLOUDY    45  40  82 S5        29.67F FOG
BLAIR          CLOUDY    43  41  92 S5        29.65F FOG
FREMONT        CLOUDY    42  41  98 S5        29.67S
MILLARD        CLOUDY    45  42  91 SE3       29.67S FOG
OFFUTT AFB     CLOUDY    43  43 100 SE3       29.67S
PLATTSMOUTH    FOG       43  40  90 S5        29.67R VSB 1/2
WAHOO          CLOUDY    41  40  96 S8        29.66F
$$




USA.gov is the U.S. government's official web portal to all federal, state and local government web resources and services.